Time,TemperatureF,DewpointF,PressureIn,WindDirection,WindDirectionDegrees,WindSpeedMPH,WindSpeedGustMPH,Humidity,HourlyPrecipIn,Conditions,Clouds,dailyrainin,SoftwareType,DateUTC
2013-01-03 00:00:00,29.6,28.6,30.12,East,97,0.0,6.0,96,0.00,,,0.00,Wunderground v.1.15,2013-01-03 08:00:00,
2013-01-03 00:06:00,29.7,29.0,30.11,NW,318,0.0,6.0,97,0.00,,,0.00,Wunderground v.1.15,2013-01-03 08:06:00,
2013-01-03 00:12:00,29.7,28.7,30.11,East,92,1.0,6.0,96,0.00,,,0.00,Wunderground v.1.15,2013-01-03 08:12:00,
2013-01-03 00:17:00,29.6,28.6,30.11,East,91,0.0,6.0,96,0.00,,,0.00,Wunderground v.1.15,2013-01-03 08:17:00,
2013-01-03 00:23:00,29.6,28.6,30.10,West,275,1.0,6.0,96,0.00,,,0.00,Wunderground v.1.15,2013-01-03 08:23:00,
2013-01-03 00:28:00,29.5,28.2,30.10,WNW,294,1.0,6.0,95,0.00,,,0.00,Wunderground v.1.15,2013-01-03 08:28:00,
2013-01-03 00:34:00,29.6,28.6,30.10,NW,310,2.0,6.0,96,0.00,,,0.00,Wunderground v.1.15,2013-01-03 08:34:00,
2013-01-03 00:40:00,29.5,28.2,30.11,NW,310,1.0,1.0,95,0.00,,,0.00,Wunderground v.1.15,2013-01-03 08:40:00,
2013-01-03 00:46:00,29.5,28.2,30.10,NW,310,0.0,6.0,95,0.00,,,0.00,Wunderground v.1.15,2013-01-03 08:46:00,
2013-01-03 00:52:00,29.5,28.2,30.11,NW,310,0.0,6.0,95,0.00,,,0.00,Wunderground v.1.15,2013-01-03 08:52:00,
2013-01-03 00:58:00,29.5,28.2,30.11,North,11,0.0,6.0,95,0.00,,,0.00,Wunderground v.1.15,2013-01-03 08:58:00,
2013-01-03 01:04:00,29.5,28.2,30.10,North,11,0.0,6.0,95,0.00,,,0.00,Wunderground v.1.15,2013-01-03 09:04:00,
2013-01-03 01:09:00,29.6,28.3,30.11,North,11,0.0,6.0,95,0.00,,,0.00,Wunderground v.1.15,2013-01-03 09:09:00,
2013-01-03 01:15:00,29.7,28.4,30.10,North,11,0.0,6.0,95,0.00,,,0.00,Wunderground v.1.15,2013-01-03 09:15:00,
2013-01-03 01:20:00,29.6,28.3,30.10,North,11,0.0,6.0,95,0.00,,,0.00,Wunderground v.1.15,2013-01-03 09:20:00,
2013-01-03 01:26:00,29.4,28.1,30.11,WNW,301,1.0,6.0,95,0.00,,,0.00,Wunderground v.1.15,2013-01-03 09:26:00,
2013-01-03 01:31:00,29.5,28.2,30.10,WNW,301,1.0,6.0,95,0.00,,,0.00,Wunderground v.1.15,2013-01-03 09:31:00,
2013-01-03 01:37:00,29.4,28.1,30.10,SE,146,0.0,6.0,95,0.00,,,0.00,Wunderground v.1.15,2013-01-03 09:37:00,
2013-01-03 01:43:00,29.4,28.1,30.11,SE,146,0.0,6.0,95,0.00,,,0.00,Wunderground v.1.15,2013-01-03 09:43:00,
2013-01-03 01:49:00,29.3,28.0,30.11,SE,146,0.0,6.0,95,0.00,,,0.00,Wunderground v.1.15,2013-01-03 09:49:00,
2013-01-03 01:55:00,29.2,27.9,30.11,SE,146,0.0,6.0,95,0.00,,,0.00,Wunderground v.1.15,2013-01-03 09:55:00,
2013-01-03 02:00:00,29.1,27.8,30.11,SE,146,0.0,6.0,95,0.00,,,0.00,Wunderground v.1.15,2013-01-03 10:00:00,
2013-01-03 02:06:00,29.2,28.2,30.11,SE,146,0.0,6.0,96,0.00,,,0.00,Wunderground v.1.15,2013-01-03 10:06:00,
2013-01-03 02:12:00,29.2,28.2,30.11,SE,146,1.0,6.0,96,0.00,,,0.00,Wunderground v.1.15,2013-01-03 10:12:00,
2013-01-03 02:18:00,29.6,28.6,30.10,SSE,153,1.0,6.0,96,0.00,,,0.00,Wunderground v.1.15,2013-01-03 10:18:00,
2013-01-03 02:24:00,29.7,28.7,30.10,SSE,153,1.0,6.0,96,0.00,,,0.00,Wunderground v.1.15,2013-01-03 10:24:00,
2013-01-03 02:29:00,29.7,28.7,30.10,NE,55,0.0,6.0,96,0.00,,,0.00,Wunderground v.1.15,2013-01-03 10:29:00,
2013-01-03 02:35:00,29.8,28.8,30.10,NE,36,0.0,6.0,96,0.00,,,0.00,Wunderground v.1.15,2013-01-03 10:35:00,
2013-01-03 02:41:00,29.7,28.4,30.10,NE,36,0.0,6.0,95,0.00,,,0.00,Wunderground v.1.15,2013-01-03 10:41:00,
2013-01-03 02:47:00,29.6,28.3,30.10,NE,36,0.0,6.0,95,0.00,,,0.00,Wunderground v.1.15,2013-01-03 10:47:00,
2013-01-03 02:53:00,29.5,28.2,30.09,NE,36,0.0,6.0,95,0.00,,,0.00,Wunderground v.1.15,2013-01-03 10:53:00,
2013-01-03 02:59:00,29.6,28.3,30.09,WNW,288,0.0,6.0,95,0.00,,,0.00,Wunderground v.1.15,2013-01-03 10:59:00,
2013-01-03 03:05:00,29.9,28.6,30.09,ENE,69,0.0,6.0,95,0.00,,,0.00,Wunderground v.1.15,2013-01-03 11:05:00,
2013-01-03 03:11:00,29.9,28.4,30.10,West,266,0.0,6.0,94,0.00,,,0.00,Wunderground v.1.15,2013-01-03 11:11:00,
2013-01-03 03:16:00,29.9,28.1,30.10,West,275,0.0,6.0,93,0.00,,,0.00,Wunderground v.1.15,2013-01-03 11:16:00,
2013-01-03 03:21:00,29.9,28.1,30.10,West,275,1.0,6.0,93,0.00,,,0.00,Wunderground v.1.15,2013-01-03 11:21:00,
2013-01-03 03:27:00,29.8,27.8,30.09,West,275,0.0,6.0,92,0.00,,,0.00,Wunderground v.1.15,2013-01-03 11:27:00,
2013-01-03 03:32:00,29.6,27.6,30.09,West,275,0.0,6.0,92,0.00,,,0.00,Wunderground v.1.15,2013-01-03 11:32:00,
2013-01-03 03:38:00,29.4,27.6,30.09,West,275,0.0,6.0,93,0.00,,,0.00,Wunderground v.1.15,2013-01-03 11:38:00,
2013-01-03 03:44:00,29.5,27.7,30.09,West,275,0.0,6.0,93,0.00,,,0.00,Wunderground v.1.15,2013-01-03 11:44:00,
2013-01-03 03:50:00,29.8,28.3,30.09,West,275,1.0,1.0,94,0.00,,,0.00,Wunderground v.1.15,2013-01-03 11:50:00,
2013-01-03 03:56:00,29.9,28.4,30.09,West,275,0.0,6.0,94,0.00,,,0.00,Wunderground v.1.15,2013-01-03 11:56:00,
2013-01-03 04:02:00,29.6,27.8,30.08,West,275,0.0,6.0,93,0.00,,,0.00,Wunderground v.1.15,2013-01-03 12:02:00,
2013-01-03 04:08:00,29.5,28.0,30.08,West,275,0.0,6.0,94,0.00,,,0.00,Wunderground v.1.15,2013-01-03 12:08:00,
2013-01-03 04:13:00,29.4,27.6,30.08,West,275,0.0,6.0,93,0.00,,,0.00,Wunderground v.1.15,2013-01-03 12:13:00,
2013-01-03 04:19:00,29.2,27.4,30.08,West,275,0.0,6.0,93,0.00,,,0.00,Wunderground v.1.15,2013-01-03 12:19:00,
2013-01-03 04:25:00,29.0,27.5,30.08,West,275,0.0,6.0,94,0.00,,,0.00,Wunderground v.1.15,2013-01-03 12:25:00,
2013-01-03 04:30:00,29.0,27.5,30.08,West,275,0.0,6.0,94,0.00,,,0.00,Wunderground v.1.15,2013-01-03 12:30:00,
2013-01-03 04:36:00,29.3,28.0,30.08,West,275,0.0,6.0,95,0.00,,,0.00,Wunderground v.1.15,2013-01-03 12:36:00,
2013-01-03 04:42:00,29.2,27.9,30.08,West,275,0.0,6.0,95,0.00,,,0.00,Wunderground v.1.15,2013-01-03 12:42:00,
2013-01-03 04:48:00,29.2,27.7,30.08,West,275,0.0,6.0,94,0.00,,,0.00,Wunderground v.1.15,2013-01-03 12:48:00,
2013-01-03 04:54:00,29.3,27.8,30.08,West,275,0.0,6.0,94,0.00,,,0.00,Wunderground v.1.15,2013-01-03 12:54:00,
2013-01-03 05:00:00,29.5,28.0,30.07,North,360,0.0,6.0,94,0.00,,,0.00,Wunderground v.1.15,2013-01-03 13:00:00,
2013-01-03 05:06:00,29.9,28.1,30.07,ESE,121,1.0,6.0,93,0.00,,,0.00,Wunderground v.1.15,2013-01-03 13:06:00,
2013-01-03 05:12:00,30.8,28.5,30.06,NE,50,1.0,6.0,91,0.00,,,0.00,Wunderground v.1.15,2013-01-03 13:12:00,
2013-01-03 05:18:00,31.5,28.4,30.06,NE,36,1.0,6.0,88,0.00,,,0.00,Wunderground v.1.15,2013-01-03 13:18:00,
2013-01-03 05:24:00,31.6,28.5,30.06,NE,36,0.0,6.0,88,0.00,,,0.00,Wunderground v.1.15,2013-01-03 13:24:00,
2013-01-03 05:30:00,31.9,28.5,30.07,WNW,290,0.0,6.0,87,0.00,,,0.00,Wunderground v.1.15,2013-01-03 13:30:00,
2013-01-03 05:36:00,31.7,28.3,30.07,WNW,290,0.0,6.0,87,0.00,,,0.00,Wunderground v.1.15,2013-01-03 13:36:00,
2013-01-03 05:41:00,31.5,28.1,30.07,WNW,290,0.0,6.0,87,0.00,,,0.00,Wunderground v.1.15,2013-01-03 13:41:00,
2013-01-03 05:47:00,31.2,28.1,30.07,North,355,0.0,6.0,88,0.00,,,0.00,Wunderground v.1.15,2013-01-03 13:47:00,
2013-01-03 05:53:00,31.0,28.1,30.06,North,355,0.0,6.0,89,0.00,,,0.00,Wunderground v.1.15,2013-01-03 13:53:00,
2013-01-03 05:59:00,30.8,27.9,30.06,North,355,0.0,6.0,89,0.00,,,0.00,Wunderground v.1.15,2013-01-03 13:59:00,
2013-01-03 06:05:00,30.8,27.7,30.06,South,171,0.0,6.0,88,0.00,,,0.00,Wunderground v.1.15,2013-01-03 14:05:00,
2013-01-03 06:11:00,30.8,28.2,30.06,SSW,202,0.0,6.0,90,0.00,,,0.00,Wunderground v.1.15,2013-01-03 14:11:00,
2013-01-03 06:17:00,30.7,28.1,30.07,SSW,202,0.0,6.0,90,0.00,,,0.00,Wunderground v.1.15,2013-01-03 14:17:00,
2013-01-03 06:22:00,30.5,27.9,30.07,SSW,202,0.0,6.0,90,0.00,,,0.00,Wunderground v.1.15,2013-01-03 14:22:00,
2013-01-03 06:28:00,30.4,27.8,30.07,SSW,202,0.0,6.0,90,0.00,,,0.00,Wunderground v.1.15,2013-01-03 14:28:00,
2013-01-03 06:34:00,30.3,27.7,30.07,SSW,202,0.0,6.0,90,0.00,,,0.00,Wunderground v.1.15,2013-01-03 14:34:00,
2013-01-03 06:40:00,30.0,27.7,30.07,SSW,202,0.0,6.0,91,0.00,,,0.00,Wunderground v.1.15,2013-01-03 14:40:00,
2013-01-03 06:45:00,29.8,27.5,30.07,SSW,202,0.0,6.0,91,0.00,,,0.00,Wunderground v.1.15,2013-01-03 14:45:00,
2013-01-03 06:51:00,29.7,27.4,30.07,SSW,202,0.0,6.0,91,0.00,,,0.00,Wunderground v.1.15,2013-01-03 14:51:00,
2013-01-03 06:56:00,29.5,27.5,30.07,ENE,78,0.0,6.0,92,0.00,,,0.00,Wunderground v.1.15,2013-01-03 14:56:00,
2013-01-03 07:02:00,29.4,27.4,30.06,ENE,78,1.0,6.0,92,0.00,,,0.00,Wunderground v.1.15,2013-01-03 15:02:00,
2013-01-03 07:08:00,29.6,27.8,30.06,South,175,0.0,6.0,93,0.00,,,0.00,Wunderground v.1.15,2013-01-03 15:08:00,
2013-01-03 07:13:00,30.2,28.2,30.06,WSW,255,0.0,6.0,92,0.00,,,0.00,Wunderground v.1.15,2013-01-03 15:13:00,
2013-01-03 07:19:00,31.2,28.1,30.06,SSW,213,0.0,6.0,88,0.00,,,0.00,Wunderground v.1.15,2013-01-03 15:19:00,
2013-01-03 07:25:00,32.1,28.1,30.06,North,5,0.0,6.0,85,0.00,,,0.00,Wunderground v.1.15,2013-01-03 15:25:00,
2013-01-03 07:31:00,32.4,28.1,30.06,SW,232,1.0,6.0,84,0.00,,,0.00,Wunderground v.1.15,2013-01-03 15:31:00,
2013-01-03 07:37:00,32.6,28.0,30.06,SW,232,1.0,6.0,83,0.00,,,0.00,Wunderground v.1.15,2013-01-03 15:37:00,
2013-01-03 07:43:00,32.6,28.0,30.06,SW,234,0.0,6.0,83,0.00,,,0.00,Wunderground v.1.15,2013-01-03 15:43:00,
2013-01-03 07:49:00,32.6,28.3,30.07,WSW,250,0.0,6.0,84,0.00,,,0.00,Wunderground v.1.15,2013-01-03 15:49:00,
2013-01-03 07:55:00,32.4,28.1,30.07,NW,311,0.0,6.0,84,0.00,,,0.00,Wunderground v.1.15,2013-01-03 15:55:00,
2013-01-03 08:01:00,31.7,27.7,30.07,ENE,57,0.0,6.0,85,0.00,,,0.00,Wunderground v.1.15,2013-01-03 16:01:00,
2013-01-03 08:07:00,31.2,27.8,30.07,ENE,57,0.0,6.0,87,0.00,,,0.00,Wunderground v.1.15,2013-01-03 16:07:00,
2013-01-03 08:13:00,30.8,27.7,30.07,NE,55,0.0,6.0,88,0.00,,,0.00,Wunderground v.1.15,2013-01-03 16:13:00,
2013-01-03 08:19:00,30.9,27.8,30.07,West,270,1.0,6.0,88,0.00,,,0.00,Wunderground v.1.15,2013-01-03 16:19:00,
2013-01-03 08:24:00,31.0,27.6,30.06,South,173,2.0,6.0,87,0.00,,,0.00,Wunderground v.1.15,2013-01-03 16:24:00,
2013-01-03 08:30:00,31.3,27.6,30.07,NNW,331,0.0,6.0,86,0.00,,,0.00,Wunderground v.1.15,2013-01-03 16:30:00,
2013-01-03 08:36:00,31.8,27.8,30.07,West,261,0.0,6.0,85,0.00,,,0.00,Wunderground v.1.15,2013-01-03 16:36:00,
2013-01-03 08:42:00,32.1,28.1,30.07,SSE,165,0.0,6.0,85,0.00,,,0.00,Wunderground v.1.15,2013-01-03 16:42:00,
2013-01-03 08:48:00,32.4,28.4,30.07,SSE,165,0.0,6.0,85,0.00,,,0.00,Wunderground v.1.15,2013-01-03 16:48:00,
2013-01-03 08:54:00,32.4,28.7,30.07,SSE,165,0.0,6.0,86,0.00,,,0.00,Wunderground v.1.15,2013-01-03 16:54:00,
2013-01-03 09:00:00,32.5,29.1,30.07,NNE,26,0.0,6.0,87,0.00,,,0.00,Wunderground v.1.15,2013-01-03 17:00:00,
2013-01-03 09:06:00,32.9,28.9,30.07,WNW,302,0.0,6.0,85,0.00,,,0.00,Wunderground v.1.15,2013-01-03 17:06:00,
2013-01-03 09:12:00,33.4,29.4,30.07,NW,304,0.0,6.0,85,0.00,,,0.00,Wunderground v.1.15,2013-01-03 17:12:00,
2013-01-03 09:17:00,33.7,30.0,30.07,NW,305,0.0,6.0,86,0.00,,,0.00,Wunderground v.1.15,2013-01-03 17:17:00,
2013-01-03 09:23:00,34.0,29.7,30.08,WNW,291,0.0,6.0,84,0.00,,,0.00,Wunderground v.1.15,2013-01-03 17:23:00,
2013-01-03 09:29:00,34.6,30.0,30.07,WNW,291,0.0,6.0,83,0.00,,,0.00,Wunderground v.1.15,2013-01-03 17:29:00,
2013-01-03 09:35:00,35.1,29.9,30.07,WNW,291,0.0,6.0,81,0.00,,,0.00,Wunderground v.1.15,2013-01-03 17:35:00,
2013-01-03 09:41:00,35.6,30.3,30.07,WNW,291,0.0,6.0,81,0.00,,,0.00,Wunderground v.1.15,2013-01-03 17:41:00,
2013-01-03 09:46:00,35.8,30.5,30.08,SW,235,0.0,6.0,81,0.00,,,0.00,Wunderground v.1.15,2013-01-03 17:46:00,
2013-01-03 09:52:00,36.1,30.2,30.08,SSW,199,0.0,6.0,79,0.00,,,0.00,Wunderground v.1.15,2013-01-03 17:52:00,
2013-01-03 09:57:00,36.3,31.0,30.08,SSW,198,0.0,6.0,81,0.00,,,0.00,Wunderground v.1.15,2013-01-03 17:57:00,
2013-01-03 10:03:00,36.3,30.4,30.09,SSW,199,0.0,6.0,79,0.00,,,0.00,Wunderground v.1.15,2013-01-03 18:03:00,
2013-01-03 10:09:00,36.5,31.5,30.09,SSW,199,0.0,6.0,82,0.00,,,0.00,Wunderground v.1.15,2013-01-03 18:09:00,
2013-01-03 10:15:00,36.6,31.6,30.09,SE,128,0.0,6.0,82,0.00,,,0.00,Wunderground v.1.15,2013-01-03 18:15:00,
2013-01-03 10:21:00,36.8,31.5,30.08,ESE,123,1.0,6.0,81,0.00,,,0.00,Wunderground v.1.15,2013-01-03 18:21:00,
2013-01-03 10:27:00,37.3,30.1,30.08,South,174,1.0,6.0,75,0.00,,,0.00,Wunderground v.1.15,2013-01-03 18:27:00,
2013-01-03 10:33:00,38.0,29.8,30.10,SSE,155,2.0,6.0,72,0.00,,,0.00,Wunderground v.1.15,2013-01-03 18:33:00,
2013-01-03 10:39:00,38.6,30.7,30.09,SSW,208,1.0,6.0,73,0.00,,,0.00,Wunderground v.1.15,2013-01-03 18:39:00,
2013-01-03 10:45:00,38.7,30.4,30.09,SE,146,0.0,6.0,72,0.00,,,0.00,Wunderground v.1.15,2013-01-03 18:45:00,
2013-01-03 10:50:00,38.9,31.3,30.09,SE,146,0.0,6.0,74,0.00,,,0.00,Wunderground v.1.15,2013-01-03 18:50:00,
2013-01-03 10:55:00,39.0,31.7,30.10,SSE,157,0.0,6.0,75,0.00,,,0.00,Wunderground v.1.15,2013-01-03 18:55:00,
2013-01-03 11:00:00,38.9,31.3,30.09,SW,225,0.0,6.0,74,0.00,,,0.00,Wunderground v.1.15,2013-01-03 19:00:00,
2013-01-03 11:06:00,38.8,30.9,30.10,SSE,161,0.0,6.0,73,0.00,,,0.00,Wunderground v.1.15,2013-01-03 19:06:00,
2013-01-03 11:12:00,38.9,31.0,30.10,ESE,120,0.0,6.0,73,0.00,,,0.00,Wunderground v.1.15,2013-01-03 19:12:00,
2013-01-03 11:18:00,39.4,30.4,30.09,ENE,63,1.0,6.0,70,0.00,,,0.00,Wunderground v.1.15,2013-01-03 19:18:00,
2013-01-03 11:56:00,41.8,29.7,30.09,South,177,2.0,6.0,62,0.00,,,0.00,Wunderground v.1.15,2013-01-03 19:56:00,
2013-01-03 12:02:00,42.3,31.4,30.09,SSW,199,0.0,6.0,65,0.00,,,0.00,Wunderground v.1.15,2013-01-03 20:02:00,
2013-01-03 12:07:00,42.8,31.5,30.09,SSW,198,0.0,6.0,64,0.00,,,0.00,Wunderground v.1.15,2013-01-03 20:07:00,
2013-01-03 12:13:00,43.3,32.7,30.09,South,174,0.0,6.0,66,0.00,,,0.00,Wunderground v.1.15,2013-01-03 20:13:00,
2013-01-03 12:19:00,43.5,30.9,30.09,SE,136,0.0,6.0,61,0.00,,,0.00,Wunderground v.1.15,2013-01-03 20:19:00,
2013-01-03 12:25:00,43.6,31.8,30.08,South,171,1.0,6.0,63,0.00,,,0.00,Wunderground v.1.15,2013-01-03 20:25:00,
2013-01-03 12:31:00,43.6,30.2,30.08,North,360,1.0,6.0,59,0.00,,,0.00,Wunderground v.1.15,2013-01-03 20:31:00,
2013-01-03 12:37:00,43.6,29.8,30.08,SSE,158,2.0,8.0,58,0.00,,,0.00,Wunderground v.1.15,2013-01-03 20:37:00,
2013-01-03 12:42:00,43.6,29.8,30.08,SE,146,3.0,6.0,58,0.00,,,0.00,Wunderground v.1.15,2013-01-03 20:42:00,
2013-01-03 12:48:00,43.7,30.3,30.07,SSW,197,4.0,8.0,59,0.00,,,0.00,Wunderground v.1.15,2013-01-03 20:48:00,
2013-01-03 12:54:00,44.0,30.6,30.07,SE,146,4.0,7.0,59,0.00,,,0.00,Wunderground v.1.15,2013-01-03 20:54:00,
2013-01-03 13:00:00,44.4,31.8,30.07,SSE,157,3.0,3.0,61,0.00,,,0.00,Wunderground v.1.15,2013-01-03 21:00:00,
2013-01-03 13:05:00,44.8,30.9,30.07,SSE,158,3.0,6.0,58,0.00,,,0.00,Wunderground v.1.15,2013-01-03 21:05:00,
2013-01-03 13:10:00,45.2,31.7,30.06,SSE,163,4.0,6.0,59,0.00,,,0.00,Wunderground v.1.15,2013-01-03 21:10:00,
2013-01-03 13:15:00,45.7,33.0,30.06,East,94,3.0,6.0,61,0.00,,,0.00,Wunderground v.1.15,2013-01-03 21:15:00,
2013-01-03 13:20:00,46.1,32.1,30.06,SSW,202,2.0,2.0,58,0.00,,,0.00,Wunderground v.1.15,2013-01-03 21:20:00,
2013-01-03 13:25:00,46.7,32.3,30.05,SSE,161,3.0,6.0,57,0.00,,,0.00,Wunderground v.1.15,2013-01-03 21:25:00,
2013-01-03 13:31:00,47.0,33.0,30.05,SSW,192,2.0,6.0,58,0.00,,,0.00,Wunderground v.1.15,2013-01-03 21:31:00,
2013-01-03 13:37:00,47.5,33.9,30.05,SE,140,2.0,6.0,59,0.00,,,0.00,Wunderground v.1.15,2013-01-03 21:37:00,
2013-01-03 13:42:00,47.7,34.1,30.05,SE,141,3.0,6.0,59,0.00,,,0.00,Wunderground v.1.15,2013-01-03 21:42:00,
2013-01-03 13:47:00,47.7,33.6,30.05,SE,134,2.0,6.0,58,0.00,,,0.00,Wunderground v.1.15,2013-01-03 21:47:00,
2013-01-03 13:52:00,47.5,33.9,30.05,South,184,1.0,6.0,59,0.00,,,0.00,Wunderground v.1.15,2013-01-03 21:52:00,
2013-01-03 13:58:00,47.2,33.6,30.05,SE,138,2.0,6.0,59,0.00,,,0.00,Wunderground v.1.15,2013-01-03 21:58:00,
2013-01-03 14:04:00,47.0,33.4,30.05,SSW,200,1.0,6.0,59,0.00,,,0.00,Wunderground v.1.15,2013-01-03 22:04:00,
2013-01-03 14:10:00,46.9,34.1,30.05,SE,133,2.0,6.0,61,0.00,,,0.00,Wunderground v.1.15,2013-01-03 22:10:00,
2013-01-03 14:16:00,47.0,33.8,30.05,SSE,163,3.0,6.0,60,0.00,,,0.00,Wunderground v.1.15,2013-01-03 22:16:00,
2013-01-03 14:22:00,46.9,33.7,30.05,SSE,163,3.0,6.0,60,0.00,,,0.00,Wunderground v.1.15,2013-01-03 22:22:00,
2013-01-03 14:28:00,46.9,33.7,30.06,SSW,199,3.0,6.0,60,0.00,,,0.00,Wunderground v.1.15,2013-01-03 22:28:00,
2013-01-03 14:34:00,46.8,33.6,30.06,SSW,202,3.0,6.0,60,0.00,,,0.00,Wunderground v.1.15,2013-01-03 22:34:00,
2013-01-03 14:40:00,46.8,34.9,30.06,SSE,157,2.0,6.0,63,0.00,,,0.00,Wunderground v.1.15,2013-01-03 22:40:00,
2013-01-03 14:46:00,46.6,34.3,30.06,South,181,2.0,6.0,62,0.00,,,0.00,Wunderground v.1.15,2013-01-03 22:46:00,
2013-01-03 14:52:00,46.4,34.5,30.06,East,84,2.0,6.0,63,0.00,,,0.00,Wunderground v.1.15,2013-01-03 22:52:00,
2013-01-03 14:58:00,46.3,34.8,30.06,East,100,2.0,6.0,64,0.00,,,0.00,Wunderground v.1.15,2013-01-03 22:58:00,
2013-01-03 15:04:00,46.2,35.1,30.06,ESE,117,2.0,6.0,65,0.00,,,0.00,Wunderground v.1.15,2013-01-03 23:04:00,
2013-01-03 15:10:00,46.1,35.0,30.07,SSE,159,2.0,6.0,65,0.00,,,0.00,Wunderground v.1.15,2013-01-03 23:10:00,
2013-01-03 15:15:00,46.0,34.9,30.07,SSE,157,2.0,6.0,65,0.00,,,0.00,Wunderground v.1.15,2013-01-03 23:15:00,
2013-01-03 15:21:00,45.8,34.7,30.07,NE,55,2.0,6.0,65,0.00,,,0.00,Wunderground v.1.15,2013-01-03 23:21:00,
2013-01-03 15:26:00,45.6,35.3,30.07,SE,138,2.0,6.0,67,0.00,,,0.00,Wunderground v.1.15,2013-01-03 23:26:00,
2013-01-03 15:32:00,45.4,35.8,30.07,East,88,2.0,6.0,69,0.00,,,0.00,Wunderground v.1.15,2013-01-03 23:32:00,
2013-01-03 15:38:00,45.2,34.9,30.08,South,170,2.0,6.0,67,0.00,,,0.00,Wunderground v.1.15,2013-01-03 23:38:00,
2013-01-03 15:44:00,45.2,35.3,30.08,ENE,62,2.0,6.0,68,0.00,,,0.00,Wunderground v.1.15,2013-01-03 23:44:00,
2013-01-03 15:50:00,45.0,35.8,30.08,South,189,2.0,6.0,70,0.00,,,0.00,Wunderground v.1.15,2013-01-03 23:50:00,
2013-01-03 15:55:00,44.8,36.0,30.08,SE,146,3.0,6.0,71,0.00,,,0.00,Wunderground v.1.15,2013-01-03 23:55:00,
2013-01-03 16:01:00,44.7,35.9,30.08,South,184,2.0,3.0,71,0.00,,,0.00,Wunderground v.1.15,2013-01-04 00:01:00,
2013-01-03 16:06:00,44.7,36.2,30.08,East,89,2.0,6.0,72,0.00,,,0.00,Wunderground v.1.15,2013-01-04 00:06:00,
2013-01-03 16:12:00,44.7,36.2,30.08,NNE,28,2.0,6.0,72,0.00,,,0.00,Wunderground v.1.15,2013-01-04 00:12:00,
2013-01-03 16:18:00,44.7,36.6,30.09,ESE,107,2.0,6.0,73,0.00,,,0.00,Wunderground v.1.15,2013-01-04 00:18:00,
2013-01-03 16:24:00,44.4,37.0,30.09,SE,139,1.0,6.0,75,0.00,,,0.00,Wunderground v.1.15,2013-01-04 00:24:00,
2013-01-03 16:29:00,44.1,37.0,30.09,East,94,1.0,6.0,76,0.00,,,0.00,Wunderground v.1.15,2013-01-04 00:29:00,
2013-01-03 16:35:00,43.7,37.6,30.10,South,182,1.0,6.0,79,0.00,,,0.00,Wunderground v.1.15,2013-01-04 00:35:00,
2013-01-03 16:41:00,43.1,38.0,30.10,SSE,153,1.0,6.0,82,0.00,,,0.00,Wunderground v.1.15,2013-01-04 00:41:00,
2013-01-03 16:47:00,42.6,37.8,30.10,SSE,164,2.0,6.0,83,0.00,,,0.00,Wunderground v.1.15,2013-01-04 00:47:00,
2013-01-03 16:52:00,42.3,38.1,30.10,SSW,204,2.0,6.0,85,0.00,,,0.00,Wunderground v.1.15,2013-01-04 00:52:00,
2013-01-03 16:58:00,41.9,38.3,30.10,SSW,194,2.0,6.0,87,0.00,,,0.00,Wunderground v.1.15,2013-01-04 00:58:00,
2013-01-03 17:03:00,41.7,38.4,30.10,South,186,2.0,6.0,88,0.00,,,0.00,Wunderground v.1.15,2013-01-04 01:03:00,
2013-01-03 17:09:00,41.5,38.8,30.10,SSW,202,2.0,6.0,90,0.00,,,0.01,Wunderground v.1.15,2013-01-04 01:09:00,
2013-01-03 17:15:00,41.4,39.0,30.10,SSW,198,2.0,6.0,91,0.07,,,0.01,Wunderground v.1.15,2013-01-04 01:15:00,
2013-01-03 17:21:00,41.4,39.3,30.11,SSE,163,2.0,6.0,92,0.07,,,0.02,Wunderground v.1.15,2013-01-04 01:21:00,
2013-01-03 17:27:00,41.4,39.5,30.10,South,171,2.0,6.0,93,0.05,,,0.02,Wunderground v.1.15,2013-01-04 01:27:00,
2013-01-03 17:33:00,41.6,40.0,30.11,SSW,197,2.0,6.0,94,0.05,,,0.03,Wunderground v.1.15,2013-01-04 01:33:00,
2013-01-03 17:39:00,41.7,40.1,30.11,South,186,2.0,6.0,94,0.08,,,0.04,Wunderground v.1.15,2013-01-04 01:39:00,
2013-01-03 17:45:00,41.8,40.2,30.11,SSW,193,2.0,6.0,94,0.06,,,0.04,Wunderground v.1.15,2013-01-04 01:45:00,
2013-01-03 17:51:00,42.0,40.7,30.11,SSW,195,2.0,6.0,95,0.05,,,0.05,Wunderground v.1.15,2013-01-04 01:51:00,
2013-01-03 17:57:00,42.2,40.9,30.11,West,267,2.0,6.0,95,0.08,,,0.06,Wunderground v.1.15,2013-01-04 01:57:00,
2013-01-03 18:02:00,42.4,41.1,30.11,SSE,163,1.0,6.0,95,0.07,,,0.06,Wunderground v.1.15,2013-01-04 02:02:00,
2013-01-03 18:07:00,42.6,41.5,30.12,SSW,200,1.0,6.0,96,0.05,,,0.06,Wunderground v.1.15,2013-01-04 02:07:00,
2013-01-03 18:12:00,42.8,41.5,30.12,SSW,202,1.0,6.0,95,0.04,,,0.07,Wunderground v.1.15,2013-01-04 02:12:00,
2013-01-03 18:18:00,43.1,42.0,30.12,South,184,2.0,6.0,96,0.08,,,0.08,Wunderground v.1.15,2013-01-04 02:18:00,
2013-01-03 18:23:00,43.2,41.9,30.12,South,188,3.0,6.0,95,0.07,,,0.08,Wunderground v.1.15,2013-01-04 02:23:00,
2013-01-03 18:29:00,43.4,42.1,30.12,SW,233,2.0,6.0,95,0.05,,,0.09,Wunderground v.1.15,2013-01-04 02:29:00,
2013-01-03 18:35:00,43.4,42.3,30.12,NW,315,2.0,6.0,96,0.05,,,0.09,Wunderground v.1.15,2013-01-04 02:35:00,
2013-01-03 18:41:00,43.5,42.2,30.13,SSW,209,1.0,6.0,95,0.07,,,0.10,Wunderground v.1.15,2013-01-04 02:41:00,
2013-01-03 18:47:00,43.6,42.5,30.13,SSW,204,1.0,6.0,96,0.08,,,0.11,Wunderground v.1.15,2013-01-04 02:47:00,
2013-01-03 18:52:00,43.6,42.5,30.13,South,176,1.0,6.0,96,0.10,,,0.12,Wunderground v.1.15,2013-01-04 02:52:00,
2013-01-03 18:58:00,43.9,42.8,30.13,SSW,207,1.0,6.0,96,0.08,,,0.13,Wunderground v.1.15,2013-01-04 02:58:00,
2013-01-03 19:04:00,44.0,42.9,30.13,SSW,211,1.0,6.0,96,0.09,,,0.14,Wunderground v.1.15,2013-01-04 03:04:00,
2013-01-03 19:10:00,44.0,42.9,30.13,SSW,211,0.0,6.0,96,0.09,,,0.14,Wunderground v.1.15,2013-01-04 03:10:00,
2013-01-03 19:15:00,44.1,43.0,30.14,South,190,1.0,6.0,96,0.05,,,0.14,Wunderground v.1.15,2013-01-04 03:15:00,
2013-01-03 19:21:00,44.3,43.2,30.14,WSW,237,1.0,6.0,96,0.05,,,0.15,Wunderground v.1.15,2013-01-04 03:21:00,
2013-01-03 19:27:00,44.3,43.2,30.14,WSW,237,0.0,6.0,96,0.11,,,0.16,Wunderground v.1.15,2013-01-04 03:27:00,
2013-01-03 19:33:00,44.5,43.7,30.14,South,177,0.0,6.0,97,0.07,,,0.17,Wunderground v.1.15,2013-01-04 03:33:00,
2013-01-03 19:39:00,44.7,43.9,30.15,South,184,0.0,6.0,97,0.11,,,0.18,Wunderground v.1.15,2013-01-04 03:39:00,
2013-01-03 19:44:00,44.8,44.0,30.15,South,178,0.0,6.0,97,0.07,,,0.19,Wunderground v.1.15,2013-01-04 03:44:00,
2013-01-03 19:50:00,45.0,44.2,30.15,West,271,0.0,6.0,97,0.12,,,0.20,Wunderground v.1.15,2013-01-04 03:50:00,
2013-01-03 19:55:00,45.2,44.4,30.15,SW,215,1.0,6.0,97,0.07,,,0.21,Wunderground v.1.15,2013-01-04 03:55:00,
2013-01-03 20:01:00,45.2,44.4,30.15,SW,215,0.0,6.0,97,0.14,,,0.22,Wunderground v.1.15,2013-01-04 04:01:00,
2013-01-03 20:07:00,45.2,44.4,30.16,SW,231,0.0,6.0,97,0.09,,,0.23,Wunderground v.1.15,2013-01-04 04:07:00,
2013-01-03 20:12:00,45.2,44.4,30.16,SW,231,0.0,6.0,97,0.13,,,0.24,Wunderground v.1.15,2013-01-04 04:12:00,
2013-01-03 20:17:00,45.1,44.3,30.16,SW,231,0.0,6.0,97,0.08,,,0.24,Wunderground v.1.15,2013-01-04 04:17:00,
2013-01-03 20:23:00,45.2,44.4,30.16,SW,226,0.0,6.0,97,0.12,,,0.26,Wunderground v.1.15,2013-01-04 04:23:00,
2013-01-03 20:29:00,45.2,44.4,30.16,SW,226,0.0,6.0,97,0.12,,,0.27,Wunderground v.1.15,2013-01-04 04:29:00,
2013-01-03 20:35:00,45.3,44.5,30.16,East,101,0.0,6.0,97,0.10,,,0.28,Wunderground v.1.15,2013-01-04 04:35:00,
2013-01-03 20:41:00,45.4,44.6,30.17,East,101,0.0,6.0,97,0.09,,,0.29,Wunderground v.1.15,2013-01-04 04:41:00,
2013-01-03 20:47:00,45.5,44.7,30.17,East,101,0.0,6.0,97,0.14,,,0.30,Wunderground v.1.15,2013-01-04 04:47:00,
2013-01-03 20:53:00,45.4,44.6,30.17,ESE,117,0.0,6.0,97,0.08,,,0.31,Wunderground v.1.15,2013-01-04 04:53:00,
2013-01-03 20:59:00,45.4,44.6,30.17,ESE,117,0.0,6.0,97,0.09,,,0.32,Wunderground v.1.15,2013-01-04 04:59:00,
2013-01-03 21:03:00,45.4,44.6,30.17,ESE,117,0.0,6.0,97,0.09,,,0.32,Wunderground v.1.15,2013-01-04 05:03:00,
2013-01-03 21:04:00,45.4,44.6,30.17,ESE,117,0.0,6.0,97,0.09,,,0.32,Wunderground v.1.15,2013-01-04 05:04:00,
2013-01-03 21:07:00,45.3,44.5,30.17,ESE,117,0.0,6.0,97,0.06,,,0.32,Wunderground v.1.15,2013-01-04 05:07:00,
2013-01-03 21:11:00,45.1,44.3,30.18,ESE,117,0.0,6.0,97,0.32,,,0.33,Wunderground v.1.15,2013-01-04 05:11:00,
2013-01-03 21:17:00,45.0,44.2,30.18,ESE,117,0.0,6.0,97,0.31,,,0.36,Wunderground v.1.15,2013-01-04 05:17:00,
2013-01-03 21:23:00,45.1,44.3,30.18,ESE,117,0.0,6.0,97,0.22,,,0.38,Wunderground v.1.15,2013-01-04 05:23:00,
2013-01-03 21:29:00,45.1,44.6,30.18,ESE,117,0.0,6.0,98,0.09,,,0.38,Wunderground v.1.15,2013-01-04 05:29:00,
2013-01-03 21:34:00,45.2,44.7,30.19,SSW,213,0.0,6.0,98,0.07,,,0.39,Wunderground v.1.15,2013-01-04 05:34:00,
2013-01-03 21:39:00,45.2,44.7,30.19,SSW,213,0.0,6.0,98,0.08,,,0.40,Wunderground v.1.15,2013-01-04 05:39:00,
2013-01-03 21:45:00,45.4,44.9,30.19,SE,136,0.0,6.0,98,0.08,,,0.40,Wunderground v.1.15,2013-01-04 05:45:00,
2013-01-03 21:51:00,45.8,45.3,30.19,SE,138,1.0,6.0,98,0.05,,,0.40,Wunderground v.1.15,2013-01-04 05:51:00,
2013-01-03 21:57:00,45.6,45.1,30.19,SE,138,0.0,6.0,98,0.00,,,0.40,Wunderground v.1.15,2013-01-04 05:57:00,
2013-01-03 22:02:00,45.8,45.3,30.20,NE,43,0.0,6.0,98,0.00,,,0.40,Wunderground v.1.15,2013-01-04 06:02:00,
2013-01-03 22:07:00,45.8,45.3,30.20,NE,44,0.0,6.0,98,0.00,,,0.40,Wunderground v.1.15,2013-01-04 06:07:00,
2013-01-03 22:12:00,46.2,45.7,30.20,ENE,63,1.0,6.0,98,0.00,,,0.41,Wunderground v.1.15,2013-01-04 06:12:00,
2013-01-03 22:18:00,46.9,46.4,30.20,North,350,1.0,6.0,98,0.00,,,0.41,Wunderground v.1.15,2013-01-04 06:18:00,
2013-01-03 22:23:00,47.0,46.5,30.21,ESE,112,1.0,6.0,98,0.00,,,0.41,Wunderground v.1.15,2013-01-04 06:23:00,
2013-01-03 22:29:00,47.4,47.1,30.21,ENE,63,1.0,6.0,99,0.00,,,0.42,Wunderground v.1.15,2013-01-04 06:29:00,
2013-01-03 22:34:00,47.5,47.0,30.21,ENE,63,1.0,6.0,98,0.00,,,0.42,Wunderground v.1.15,2013-01-04 06:34:00,
2013-01-03 22:40:00,47.3,46.8,30.21,ENE,63,0.0,6.0,98,0.00,,,0.42,Wunderground v.1.15,2013-01-04 06:40:00,
2013-01-03 22:46:00,47.0,46.5,30.21,ENE,63,0.0,6.0,98,0.00,,,0.42,Wunderground v.1.15,2013-01-04 06:46:00,
2013-01-03 22:52:00,46.9,46.4,30.21,ENE,63,0.0,6.0,98,0.00,,,0.42,Wunderground v.1.15,2013-01-04 06:52:00,
2013-01-03 22:57:00,46.7,46.2,30.21,ENE,63,0.0,6.0,98,0.00,,,0.43,Wunderground v.1.15,2013-01-04 06:57:00,
2013-01-03 23:03:00,46.4,45.9,30.22,ENE,63,0.0,6.0,98,0.08,,,0.44,Wunderground v.1.15,2013-01-04 07:03:00,
2013-01-03 23:08:00,46.4,45.9,30.22,ENE,63,0.0,6.0,98,0.08,,,0.44,Wunderground v.1.15,2013-01-04 07:08:00,
2013-01-03 23:14:00,46.3,45.8,30.22,ENE,63,0.0,6.0,98,0.05,,,0.44,Wunderground v.1.15,2013-01-04 07:14:00,
2013-01-03 23:20:00,46.3,45.8,30.22,ENE,63,0.0,6.0,98,0.00,,,0.44,Wunderground v.1.15,2013-01-04 07:20:00,
2013-01-03 23:26:00,46.3,45.8,30.23,SSE,157,0.0,6.0,98,0.00,,,0.44,Wunderground v.1.15,2013-01-04 07:26:00,
2013-01-03 23:31:00,47.4,47.1,30.22,SSW,206,1.0,6.0,99,0.00,,,0.45,Wunderground v.1.15,2013-01-04 07:31:00,
2013-01-03 23:37:00,47.8,47.5,30.23,SSW,207,1.0,6.0,99,0.00,,,0.45,Wunderground v.1.15,2013-01-04 07:37:00,
2013-01-03 23:43:00,48.0,47.7,30.23,SSW,207,1.0,6.0,99,0.00,,,0.45,Wunderground v.1.15,2013-01-04 07:43:00,
2013-01-03 23:48:00,48.1,47.8,30.23,WSW,245,0.0,6.0,99,0.00,,,0.45,Wunderground v.1.15,2013-01-04 07:48:00,
2013-01-03 23:54:00,48.3,48.0,30.23,West,271,0.0,6.0,99,0.00,,,0.46,Wunderground v.1.15,2013-01-04 07:54:00,